Regional Weather Roundup
Issued by NWS

Home | Current Version | Previous Version | Graphics & Text | Print | Product List | Glossary On
Versions: 1 2 3 4 5 6 7 8 9 10 11 12 13 14 15 16 17 18 19 20 21 22 23 24 25 26 27 28 29 30 31 32 33 34 35 36 37 38 39 40 41 42 43 44 45 46 47 48 49 50
000
ASUS43 KFSD 260102
RWRSD

WEATHER ROUNDUP FOR SOUTH DAKOTA
NATIONAL WEATHER SERVICE SIOUX FALLS SD
800 PM CDT SUN SEP 25 2016

NOTE: "FAIR" INDICATES FEW OR NO CLOUDS BELOW 12,000 FEET WITH NO
SIGNIFICANT WEATHER AND/OR OBSTRUCTIONS TO VISIBILITY.


SDZ001>005-009-010-012>017-260200-
NORTHWEST AND NORTH CENTRAL SOUTH DAKOTA

CITY           SKY/WX    TMP DP  RH WIND       PRES   REMARKS
BUFFALO          N/A     56  37  49 W10       30.21S
FAITH            N/A     56  35  45 NW14      30.25R
MOBRIDGE       CLEAR     61  30  31 NW14      30.15R
$$

SDZ012>016-024>037-041>051-057-063-072>074-260200-
SOUTHWEST AND SOUTH CENTRAL SOUTH DAKOTA

CITY           SKY/WX    TMP DP  RH WIND       PRES   REMARKS
RAPID CTY ARPT CLEAR     54  33  45 N12       30.30S
PIERRE         CLEAR     59  28  30 NW13      30.20R
CUSTER         CLEAR     49  28  44 NW3       30.38R
ELLSWORTH AFB  CLEAR     59  33  36 N8        30.30R
PHILIP         CLEAR     59  31  34 NW10      30.27R
PINE RIDGE     CLEAR     55  27  34 N7        30.32R
WINNER         FAIR      57  29  34 NW7       30.24R
$$

SDZ004>011-016>023-039-040-260200-
NORTHEAST SOUTH DAKOTA

CITY           SKY/WX    TMP DP  RH WIND       PRES   REMARKS
ABERDEEN       CLEAR     59  34  39 NW10      30.11R
WATERTOWN      PTCLDY    58  37  45 NW12      30.09R
SISSETON         N/A     57  37  47 NW13      30.02R
$$

SDZ017-020-022-023-036>040-048>070-260200-
SOUTHEAST SOUTH DAKOTA

CITY           SKY/WX    TMP DP  RH WIND       PRES   REMARKS
SIOUX FALLS    PTCLDY    57  41  55 W7        30.13R
HURON          CLEAR     57  33  40 NW10      30.15R
CHAMBERLAIN    CLEAR     61  31  32 NW9       30.21R
MITCHELL       CLEAR     59  34  39 NW10      30.17R
YANKTON        CLEAR     57  36  44 W10       30.17R
$$

ABBREVIATIONS USED IN REMARKS
   TC - TEMPERATURE IN CELSIUS
  WCI - WIND CHILL INDEX
   HX - HEAT INDEX
  VSB - VISIBILITY





USA.gov is the U.S. government's official web portal to all federal, state and local government web resources and services.